{"data":{"norad_id":51719,"epoch":"2026-09-20T00:20:52.931328Z","epoch_age_seconds":90394,"freshness":"FRESH","line1":"1 51719U 22016F   26263.01450152 -.00000363  00000+0  49891-6 0  9990","line2":"2 51719  53.1616 166.2932 0001449  79.6027 280.5139 15.35395426252904","mean_motion":15.35395426,"eccentricity":0.0001449,"inclination_deg":53.1616,"raan_deg":166.2932,"arg_perigee_deg":79.6027,"mean_anomaly_deg":280.5139,"bstar":4.9891e-7,"rev_number":25290,"period_min":93.786914798325,"perigee_km":458.75541363377,"apogee_km":460.73703219177,"semimajor_km":6837.8832229128,"source":"CELESTRAK","updated_at":"2026-09-20T09:00:39.598029Z"}}